Location: Bonningues
(50.7927°N, 2.0150°E)
Time: 03:27:26
(UTC+00:00)

Lacrosse 4 Rocket - Pass Details

Date: 08 August 2020
Orbit: 544 x 615 km, 68.0° (Epoch: 19 September)

Event Time Altitude Azimuth Distance (km) Brightness Sun altitude
Exits shadow 22:45:21 16° 81° (E) 1,551 3.5 -21.6°
Drops below altitude 10° 22:46:46 10° 64° (ENE) 1,884 4.1 -21.6°
Sets 22:49:27 0° 47° (NE) 2,773 5.2 -21.8°
